Regional Weather Roundup
Issued by NWS Pendleton, OR

Home | Current Version | Previous Version | Text Only | Print | Product List | Glossary On
Versions: 1 2 3 4 5 6 7 8 9 10 11 12 13 14 15 16 17 18 19 20 21 22 23 24 25 26 27 28 29 30 31 32 33 34 35 36 37 38 39 40 41 42 43 44 45 46 47 48 49 50
464
ASUS46 KPDT 260010
RWRPDT
PENDLETON REGIONAL WEATHER ROUNDUP
NATIONAL WEATHER SERVICE PENDLETON OREGON
500 PM PDT SUN SEP 25 2016

NOTE: FAIR INDICATES FEW OR NO CLOUDS BELOW 12,000 FEET WITH NO
SIGNIFICANT WEATHER AND/OR OBSTRUCTIONS TO VISIBILITY.

# INDICATES UNOFFICIAL STATION AND DATA

WAZ520-260110-
EAST SLOPES OF WASHINGTON CASCADES

CITY            SKY/WX      TMP DP  RH  WIND    PRES   REMARKS
#BULLFROG       N/A         55  N/A N/A N2      N/A
#BUMPING DAM    N/A         55  32  41  CALM    N/A
#CLE ELUM HS    N/A         77  55  47  W1      30.24
#CLE ELUM 2NW   N/A         76  53  45  SW6     N/A
#CLE ELUM LAKE  N/A         76  56  50  CALM    30.24
#CLIFFDEL 2NW   N/A         55  N/A N/A CALM    N/A
#EASTON DOT     N/A         55  86  100 NE7     N/A
#ELK HTS DOT    N/A         55  140 100 CALM    N/A
#GLENWOOD       N/A         83  55  38  CALM    30.26
#MANASTASH CYN  N/A         72  50  46  CALM    30.31R
#NELSON 3SW     N/A         62  55  78  CALM    30.47
#NILE           N/A         75  49  40  W1      29.54
#PEOH POINT     N/A         55  50  83  CALM    N/A
#RONALD 2NW     N/A         75  N/A N/A SW1     30.34S
#SOUTH BLEWITT  N/A         55  86  100 W1      N/A
#TEANAWAY 4NE   N/A         79  59  50  W3      N/A
#TROUT LAKE 1NE N/A         79  52  39  SE1     30.25
#TROUT LAKE 1E  N/A         80  52  38  CALM    30.24
$$

WAZ521-260110-
SIMCOE HIGHLANDS

CITY            SKY/WX      TMP DP  RH  WIND    PRES   REMARKS
#SATUS PASS DOT N/A         55  140 100 W1      N/A
#CENTERVILLE 1SWN/A         81  51  35  S2      30.21
#GOLDENDALE     N/A         55  32  41  SE6     N/A
#GOLDENDALE 1NE N/A         81  32  17  E3      N/A
#GOLDENDALE 4W  N/A         85  59  41  CALM    30.30S
#GOODNOE HILLS  N/A         84  49  30  E6      N/A
#LYLE 6NE       N/A         81  49  33  SW5     30.21
$$

WAZ026-260110-
KITTITAS VALLEY

CITY            SKY/WX      TMP DP  RH  WIND    PRES   REMARKS
ELLENSBURG AP   SUNNY       83  47  28  S7      30.30
6HR MIN TEMP:   69; 6HR MAX TEMP:   83; 6HR PCP:  TRACE;

#ELLENSBURG CWU N/A         79  50  36  E7      30.19
#ELLENSBURG 3NE N/A         78  56  47  CALM    30.27
#ELLENSBURG     N/A         83  52  34  SE1     N/A
#ELLENSBURG 1E  N/A         77  N/A N/A SE1     N/A
#KITTITAS 4N    N/A         78  53  42  E1      30.29F
#KITTITAS 3S    N/A         78  53  42  CALM    30.23
#MANASTASH RDG  N/A         55  140 100 SW2     N/A
#ROCKY CYN DOT  N/A         55  N/A N/A CALM    N/A
#RYEGRASS DOT   N/A         55  140 100 SW2     N/A
#THORP 6N       N/A         77  53  43  S8      30.27
$$

WAZ027-260110-
YAKIMA VALLEY

CITY            SKY/WX      TMP DP  RH  WIND    PRES   REMARKS
SUNNYSIDE AP    SUNNY       79  54  42  CALM    30.28
6HR MIN TEMP:   64; 6HR MAX TEMP:   80;

YAKIMA AIRPORT  SUNNY       82  45  27  S6      30.30
6HR MIN TEMP:   68; 6HR MAX TEMP:   83;

YAKIMA-VAGABOND SUNNY       80  42  26  SW8     30.28
6HR MIN TEMP:   65; 6HR MAX TEMP:   80;

#GRANDVIEW      N/A         78  43  29  SE1     30.28
#MABTON         N/A         82  51  34  CALM    30.27
#NACHES 2SW     N/A         79  53  41  CALM    30.33
#OUTLOOK DOT    N/A         55  14  19  N2      N/A
#SELAH 8E       N/A         55  N/A N/A CALM    N/A
#TERRACE HTS    N/A         79  48  34  CALM    30.24
#TOPPENISH      N/A         80  47  31  CALM    30.18
#I82 S UMTANUM RN/A         55  N/A N/A N3      N/A
#UNION GAP DOT  N/A         55  N/A N/A N2      N/A
#WEST VALLEY    N/A         78  49  36  S1      30.26
#WHITE SWAN 5E  N/A         78  49  36  CALM    30.27
#WILEY CITY 3W  N/A         77  36  23  CALM    30.28
#ZILLAH DOT     N/A         54  68  100 N2      N/A
$$

WAZ028-260110-
LOWER COLUMBIA BASIN...WASHINGTON

CITY            SKY/WX      TMP DP  RH  WIND    PRES   REMARKS
PASCO           SUNNY       84  38  19  E7      30.28
6HR MIN TEMP:   70; 6HR MAX TEMP:   85; 6HR PCP:  TRACE;

PROSSER AWOS    N/A         82  45  27  NE7     30.30S
RICHLAND AWOS   SUNNY       84  41  22  CALM    30.27
#BENTON CITY    N/A         79  44  29  E3      30.17
#CONNELL 5N     N/A         81  45  28  E1      30.29
#CONNELL 5NW    N/A         80  46  30  CALM    30.25
#ELTOPIA 6NW    N/A         78  49  36  CALM    29.27
#KAHLOTUS       N/A         81  40  23  W5      30.29
#KENNEWICK 3S   N/A         80  47  31  CALM    30.27
#PATERSON       N/A         80  42  26  CALM    30.25
#PROSSER DOT    N/A         55  86  100 N2      N/A
#SAGEMOOR 2W    N/A         80  55  42  CALM    30.14
#TOUCHET 2S     N/A         83  44  25  CALM    30.26
#WEST PASCO     N/A         81  47  30  CALM    30.27
$$

WAZ029-260110-
FOOTHILLS OF THE BLUES...WASHINGTON

CITY            SKY/WX      TMP DP  RH  WIND    PRES   REMARKS
WALLA WALLA AP  SUNNY       83  38  20  VRB5    30.30
6HR MIN TEMP:   72; 6HR MAX TEMP:   83;

#CLYDE 6NW      N/A         80  42  26  W1      30.27
#DAYTON SCHOOL  N/A         79  39  24  CALM    30.32
#DELANEY DOT    N/A         55  86  100 NE3     N/A
#LOWDEN 2SE     N/A         84  48  29  CALM    30.24
#PLEASANT VIEW 1N/A         80  42  26  CALM    30.32
#PRESCOTT       N/A         83  42  24  CALM    30.27
#WHITMAN COLLEGEN/A         82  46  28  N3      30.32
#WAITSBURG 5S   N/A         83  41  23  N1      30.37
#WHITMAN MISSIONN/A         85  46  26  CALM    30.28
$$

WAZ030-260110-
BLUE MOUNTAINS...WASHINGTON

CITY            SKY/WX      TMP DP  RH  WIND    PRES   REMARKS
#DIXIE 5SE      N/A         74  46  37  W7      30.31
$$

ORZ009-041-WAZ024-260110-
COLUMBIA RIVER GORGE

CITY            SKY/WX      TMP DP  RH  WIND    PRES   REMARKS
HOOD RIVER AP   SUNNY       82  50  33  CALM    30.23
THE DALLES AP   SUNNY       87  36  16  W3      30.21
6HR MIN TEMP:   66; 6HR MAX TEMP:   87;

#ARLINGTON AIRPON/A         80  46  30  E9      30.26S
#CELILO DOT     N/A         79  47  32  N3      N/A
#MARYHILL       N/A         55  140 100 CALM    N/A
#MARYHILL 2W    N/A         N/A N/A N/A CALM    N/A
#MOSIER 1S      N/A         83  36  19  CALM    30.24S
#MURDOCK        N/A         87  45  23  SW2     30.17S
#RUFUS DOT      N/A         79  53  41  NE8     N/A
#SMITHVILLE     N/A         88  43  21  SW1     30.15

$$

ORZ510-260110-
NORTH CENTRAL OREGON

CITY            SKY/WX      TMP DP  RH  WIND    PRES   REMARKS
#ANTELOPE       N/A         81  50  34  N5      30.10
#COW CYN RST AREN/A         81  N/A N/A NE3     N/A
#DUFUR 9E       N/A         80  43  27  NE7     30.29
#GRASS VALLEY 1SN/A         82  42  24  E5      30.24
#KENT DOT       N/A         83  35  18  N3      N/A
#SHANIKO 5WSW   N/A         80  37  21  N8      N/A
#TYGH VALLEY 2NEN/A         87  51  29  CALM    30.21
#WAPANITIA AIRPON/A         83  46  27  E1      30.24
#WASCO DOT      N/A         85  45  25  E9      N/A
#WASCO 5NE      N/A         82  48  31  NE2     30.24
$$

ORZ511-260110-
CENTRAL OREGON

CITY            SKY/WX      TMP DP  RH  WIND    PRES   REMARKS
BEND AIRPORT    SUNNY       84  37  19  CALM    30.32
MADRAS AIRPORT  SUNNY       86  43  22  N6      30.32
PRINEVILLE AP   SUNNY       82  39  22  N8      30.32
REDMOND AIRPORT SUNNY       86  36  17  VRB7    30.31
6HR MIN TEMP:   70; 6HR MAX TEMP:   87;

#ASHWOOD SCHOOL N/A         82  43  25  E3      30.24
#BEND 1SW       N/A         79  41  26  NE2     N/A
#BEND-AWBREY    N/A         84  43  24  N2      30.22S
#CULVER         N/A         80  44  28  N2      30.17
#CULVER 8W      N/A         81  37  21  CALM    30.28R
#LAKE BILLY CHINN/A         81  N/A N/A N3      30.28S
#MADRAS         N/A         55  32  41  SE1     N/A
#MADRAS 4S      N/A         81  19  10  N7      30.35S
#POWELL BUTTE 3EN/A         82  43  25  NW7     N/A
#POWELL BUTTE   N/A         80  46  30  N1      30.27S
#PRINEVILLE 3N  N/A         84  48  29  N3      30.23S

$$


ORZ509-260110-
EAST SLOPES OF OREGON CASCADES

CITY            SKY/WX      TMP DP  RH  WIND    PRES   REMARKS
#BLUE BOX PASS  N/A         76  N/A N/A NE3     N/A
#CAMP SHERMAN   N/A         84  41  22  SW1     30.29
#LA PINE DOT    N/A         82  28  14  E7      N/A
#LA PINE 4NW    N/A         82  47  29  CALM    30.30
#LAVA BUTTE DOT N/A         81  38  21  NW1     N/A
#SISTERS AIRPOR N/A         82  52  35  CALM    30.17
#SISTERS ODOT   N/A         83  N/A N/A W2      N/A
#SISTERS 3N     N/A         80  43  27  N6      30.26S
#SUNRIVER       N/A         82  41  23  N2      30.30
#SUTTLE LK DOT  N/A         78  47  34  N3      N/A
#TUMALO 3W      N/A         82  41  23  E1      30.09
#WANOGA BUTTE D N/A         72  36  27  S3      N/A

$$

ORZ044-260110-
LOWER COLUMBIA BASIN...OREGON

CITY            SKY/WX      TMP DP  RH  WIND    PRES   REMARKS
HERMISTON       SUNNY       83  34  17  VRB3    30.27
6HR MIN TEMP:   66; 6HR MAX TEMP:   84;

#BOARDMAN SCHOOLN/A         78  35  21  N2      30.25
#BOARDMAN 8SW   N/A         81  46  29  N3      30.25S
#I-84 EX 198 DOTN/A         81  46  29  E6      N/A
#IRRIGON 4NW    N/A         55  50  83  CALM    N/A
#UMATILLA       N/A         86  40  20  CALM    30.19
$$

ORZ507-260110-
NORTHERN FOOTHILLS OF THE BLUES

CITY            SKY/WX      TMP DP  RH  WIND    PRES   REMARKS
PENDLETON AIRPT SUNNY       82  40  22  VRB6    30.30
6HR MIN TEMP:   70; 6HR MAX TEMP:   82;

#ADAMS 3WNW     N/A         79  42  27  E6      30.28
#ATHENA         N/A         78  44  30  N1      30.30
#CAYUSE         N/A         80  46  30  N3      30.26
#HELIX SCHOOL   N/A         78  43  29  NE2     30.30
#HELIX 3N       N/A         75  41  29  N8      30.28
#HELIX 6SW      N/A         80  41  25  CALM    30.28
#HOLDMAN 5SE    N/A         81  44  27  CALM    30.27
#HOLDMAN 6E     N/A         80  40  24  S3      30.09
#M-F GROVE ELEM N/A         80  40  24  CALM    30.27
#M-FREEWATER 5SEN/A         81  49  33  CALM    30.29
#PENDLETON DNTN N/A         84  43  24  CALM    30.30
#PDT AQUATIC CTRN/A         84  47  28  NE3     30.31
#PDT SUNRIDGE   N/A         84  46  27  N1      30.30
#PENDLETON 7NW  N/A         79  50  36  CALM    30.62
#PILOT ROCK 1S  N/A         79  42  27  N2      30.31
#PILOT ROCK     N/A         79  46  31  N2      30.32S
#TUTUILLA       N/A         80  46  30  CALM    30.29
#UMAPINE 2E     N/A         84  49  30  CALM    30.26
#WESTON SCHOOL  N/A         77  37  24  E6      30.12

$$

ORZ508-260110-
SOUTHERN FOOTHILLS OF THE BLUES

CITY            SKY/WX      TMP DP  RH  WIND    PRES   REMARKS
LEXINGTON       SUNNY       82  37  20  NE8     30.33S
#AJAX           N/A         79  33  19  N7      28.04
#CONDON SCHOOL  N/A         78  38  24  N9      30.27
#CONDON 5W      N/A         75  34  22  NE8     30.33
#FOSSIL SCHOOL  N/A         82  37  20  NE12    30.24
#HEPPNER EOC    N/A         82  37  20  N5      30.20
#HEPPNER 4NE    N/A         76  37  24  NE3     30.27
#LEXINGTON 2SE  N/A         83  41  23  NE1     30.24
#RUGGS 5NE      N/A         81  -15  2  NE7     30.52
#RUGGS 2SW      N/A         77  38  24  N6      30.29

$$

ORZ502-503-260110-
BLUE MOUNTAINS

CITY            SKY/WX      TMP DP  RH  WIND    PRES   REMARKS
MEACHAM         SUNNY       73  38  28  CALM    30.41
6HR MIN TEMP:   66; 6HR MAX TEMP:   75;

#BATTLE MTN DOT N/A         71  34  26  N3      N/A
#CUTSFORTH PARK N/A         70  45  41  CALM    30.18
#HARDMAN 10S    N/A         76  42  30  CALM    30.43
#HEPPNER 15SE   N/A         70  39  32  CALM    25.90S
#LADD CYN SMT   N/A         76  42  30  NW6     N/A
#LADD CREEK ODOTN/A         76  43  31  NE2     N/A
#LONG CREEK HS  N/A         75  46  36  CALM    30.39
#N POWDER DOT   N/A         79  43  28  NW1     N/A
#PIKES PEAK     N/A         70  43  38  CALM    27.99
#TOLLGATE       N/A         67  47  49  CALM    30.28
#TROY SCHOOL    N/A         82  45  27  CALM    30.12
#UKIAH          N/A         79  45  30  N6      30.23
#WESTON 4E      N/A         74  44  34  CALM    30.28
$$

ORZ505-260110-
JOHN DAY BASIN

CITY            SKY/WX      TMP DP  RH  WIND    PRES   REMARKS
JOHN DAY        SUNNY       80  44  28  W7      30.38
#DAYVILLE SCHOOLN/A         84  42  23  CALM    30.25
#MITCHELL       N/A         82  52  35  CALM    30.46
#MITCHELL 8NW   N/A         77  42  29  CALM    30.45
#MONUMENT HS    N/A         83  44  25  CALM    30.23
#MT. VERNON 5SE N/A         77  46  33  CALM    30.34
#SPRAY SCHOOL   N/A         85  N/A N/A CALM    N/A
$$

ORZ506-260110-
OCHOCO AND JOHN DAY HIGHLANDS

CITY            SKY/WX      TMP DP  RH  WIND    PRES   REMARKS
#BUCK CREEK DOT N/A         79  41  26  SE1     N/A
#HORSE RIDGE DO N/A         83  35  18  SE6     N/A
#PAULINA SCHOOL N/A         80  41  25  CALM    N/A
#PINE MTN OBS   N/A         71  39  31  SE6     N/A
#SENECA         N/A         75  N/A N/A CALM    N/A
#SENECA 9NW     N/A         77  43  30  CALM    30.34
$$

ORZ049-260110-
GRANDE RONDE VALLEY

CITY            SKY/WX      TMP DP  RH  WIND    PRES   REMARKS
LA GRANDE       SUNNY       79  39  24  NW3     30.35
#COVE SCHOOL    N/A         76  46  34  CALM    30.35
#COVE 6NW       N/A         77  46  33  CALM    30.24
#ELGIN 3N       N/A         77  36  23  CALM    30.30
#ELGIN 1E       N/A         81  43  26  CALM    N/A
#IMBLER SCHOOL  N/A         76  45  33  CALM    30.29
#ISLAND CITY 4N N/A         83  61  48  N1      30.22
#LADD CYN DOT   N/A         80  46  30  CALM    N/A
#LA GRANDE ELEM N/A         77  45  32  CALM    30.34S
#UNION 1S       N/A         76  46  34  CALM    30.32
$$

ORZ050-260110-
WALLOWA COUNTY

CITY            SKY/WX      TMP DP  RH  WIND    PRES   REMARKS
JOSEPH AIRPORT  SUNNY       72  45  38  CALM    30.44
#IMNAHA SCHOOL  N/A         76  38  25  N2      30.29
#IMNAHA 10S     N/A         80  41  25  NE1     30.32
#JOSEPH 3N      N/A         72  45  38  W1      30.40
#JOSEPH 3W      N/A         65  48  54  W1      30.26
#LOSTINE        N/A         78  49  36  CALM    30.16
#LOSTINE 3SE    N/A         75  44  33  CALM    30.35
#MT HOWARD 8000 N/A         55  42  61  CALM    30.66
#PROMISE 1S     N/A         74  47  38  W2      30.40
#WALLOWA SCHOOL N/A         78  47  34  CALM    30.30



$$



USA.gov is the U.S. government's official web portal to all federal, state and local government web resources and services.